Wind_Speed
38 33 34 35 33 36 41 38 38 40 42 43 43 47 52 52 53 56 61 62 60 63 67 68 67 66 68 71 72 72 72 73 76 76 74 75 74 74 75 75 76 75 76
38 37 32 33 33 37 40 37 39 41 43 45 47 50 48 51 54 58 59 62 66 67 69 71 73 73 74 75 75 76 75 69 65 65 65 66 68 65 63 65 65 64 63
40 33 32 30 30 35 37 38 39 42 42 45 48 51 52 57 60 60 66 68 69 70 74 77 78 77 77 75 74 70 68 68 64 62 59 59 61 64 65 60 59 62 59
48 42 33 34 34 36 41 41 40 40 42 48 53 55 58 62 64 66 68 71 75 77 80 81 79 78 76 72 67 65 65 65 66 66 64 62 59 58 63 59 58 57 57
39 41 42 38 39 38 41 40 42 44 51 55 55 64 65 65 66 70 74 75 78 82 81 78 76 74 71 69 70 69 69 68 65 63 61 60 60 58 55 60 59 56 56
43 36 37 39 44 47 42 41 44 49 53 59 59 60 64 68 70 75 79 81 79 76 77 76 73 73 74 73 72 71 65 63 64 66 66 66 65 64 63 62 65 62 64
41 41 42 45 46 44 45 47 49 51 53 55 62 65 71 77 81 81 80 75 74 74 74 74 72 72 71 70 66 66 66 67 70 71 72 73 73 72 72 71 71 72 74
44 43 44 42 49 52 55 56 59 59 58 62 69 75 79 82 78 78 78 76 77 75 75 77 75 72 67 66 66 68 71 73 73 76 78 78 80 82 84 84 83 82 81
47 44 47 53 52 54 55 56 58 61 64 70 78 79 79 77 77 76 77 76 76 76 72 70 67 67 68 69 71 74 76 76 79 83 85 87 88 89 92 94 94 93 90
44 47 47 49 52 53 50 54 62 67 69 72 76 74 75 75 73 73 74 75 75 73 70 66 67 69 72 74 76 78 81 84 88 90 91 93 96 97 99 100 101 103 105
41 41 44 48 52 53 56 62 69 68 67 68 71 71 69 72 74 74 75 74 73 68 68 70 73 75 77 79 81 83 88 92 94 97 99 102 105 107 109 112 113 113 114
47 47 50 53 59 63 66 60 61 64 65 63 63 67 71 73 73 73 72 69 67 69 71 74 77 79 81 85 87 89 93 97 100 104 107 111 114 118 120 122 121 120 119
48 50 52 56 61 59 59 60 61 59 59 59 63 67 70 71 70 70 69 68 69 70 73 77 81 83 84 87 90 95 100 103 107 112 116 120 122 121 121 120 117 115 113
48 49 50 48 50 56 58 56 55 54 58 62 66 67 69 69 68 68 69 69 71 75 79 80 82 84 89 91 95 101 104 108 114 118 121 121 121 120 118 113 108 101 96
44 45 45 49 53 52 50 51 51 56 61 63 63 66 67 69 68 68 70 71 73 74 77 80 84 88 92 95 102 107 111 117 120 123 121 119 115 111 104 97 91 86 82
41 44 46 46 46 45 46 48 52 59 62 62 64 68 71 71 70 69 70 70 72 76 80 83 86 91 95 101 107 113 118 123 122 120 118 111 103 96 88 82 77 73 70
39 42 42 41 43 44 45 47 54 59 63 63 67 71 74 74 72 72 72 73 75 78 81 85 90 94 101 108 114 118 121 122 120 115 107 98 90 83 76 71 68 66 63
39 40 41 43 42 43 45 50 55 62 62 65 69 73 76 76 75 75 75 75 77 81 85 89 93 100 106 112 118 121 123 123 117 105 95 87 79 73 70 65 62 58 55
40 41 43 41 43 44 48 53 58 62 63 68 72 76 79 78 78 78 77 77 80 84 88 92 99 106 108 114 121 122 123 119 106 94 85 77 72 67 63 58 56 53 50
43 44 42 43 43 45 50 54 61 65 67 73 76 78 81 80 80 79 79 79 83 86 91 98 104 109 112 117 122 121 119 106 95 86 77 70 65 61 56 52 49 47 45
46 45 43 44 45 49 54 58 64 68 70 75 79 81 82 82 82 82 81 82 86 90 97 103 108 111 116 122 121 120 110 97 87 78 71 66 61 55 50 47 45 43 42
46 45 46 47 48 52 58 62 66 71 73 77 80 82 83 85 86 84 83 85 89 94 100 106 110 114 120 122 121 113 100 89 80 72 66 61 56 51 49 47 44 42 40
46 47 48 50 53 57 62 67 69 73 74 79 81 83 85 88 88 85 84 88 92 98 105 106 113 117 119 121 117 105 92 81 72 66 61 56 51 48 45 44 43 41 39
47 49 51 53 56 60 64 67 72 74 76 80 84 85 87 90 89 88 88 90 96 100 105 109 114 119 120 119 111 98 86 76 66 61 56 51 47 45 44 42 40 38 36
49 51 53 56 59 62 67 70 73 75 79 83 86 88 89 92 92 89 90 95 97 102 104 110 115 119 120 114 104 92 83 72 63 58 53 49 46 42 39 38 37 35 34
50 53 56 60 63 67 67 70 74 77 82 85 88 90 92 95 93 92 92 94 100 104 109 113 119 120 117 109 98 87 78 67 60 56 50 45 43 39 37 36 34 32 31
Wind_Direction
289 287 290 284 282 281 281 283 285 285 287 292 296 300 305 306 301 298 297 297 301 304 306 306 307 305 302 301 299 297 295 295 293 290 289 285 282 281 282 283 280 279 278
286 280 277 283 283 284 283 285 284 284 287 291 299 306 302 295 294 295 298 305 306 307 305 306 306 304 302 299 297 297 298 295 293 291 289 288 289 282 278 279 279 278 278
293 284 281 280 276 277 280 282 285 289 296 305 302 298 294 297 295 298 304 305 306 305 304 306 305 304 301 299 299 299 298 298 295 294 293 291 290 292 289 280 278 274 274
309 297 283 283 281 284 291 293 298 299 301 300 294 294 296 298 299 303 305 305 305 304 304 306 304 304 304 304 302 302 300 298 298 297 295 293 290 290 292 289 283 273 270
305 310 298 297 302 303 301 301 298 297 296 300 297 299 303 303 304 304 304 302 302 303 303 304 305 305 304 303 303 303 301 300 299 299 299 298 295 292 290 292 290 287 277
295 297 303 305 306 302 295 292 291 293 300 304 305 305 304 305 305 303 301 302 303 304 304 304 304 303 303 303 301 301 302 302 301 299 297 294 293 291 288 285 283 282 281
294 296 300 305 305 301 301 299 300 299 303 304 304 304 304 305 304 303 304 305 304 303 303 305 306 305 304 301 302 302 302 300 298 297 296 294 292 290 287 284 280 279 277
293 292 297 299 299 302 302 301 304 304 304 303 303 304 304 304 305 305 305 303 303 303 304 304 303 302 301 301 300 299 299 299 298 295 293 292 291 289 287 284 281 278 276
292 287 290 294 296 300 302 301 302 300 305 303 302 304 305 305 305 304 305 307 307 306 305 304 305 304 303 301 301 301 300 298 294 293 292 290 287 286 285 284 282 278 274
288 296 297 298 299 300 300 299 300 301 304 304 306 305 306 306 307 308 309 308 308 308 308 307 305 304 304 303 301 299 296 294 293 292 291 289 287 284 283 280 278 276 275
291 290 289 293 294 295 296 301 303 306 306 306 306 307 308 309 310 309 309 309 309 308 307 306 306 305 304 301 299 299 297 295 295 295 293 290 287 285 282 279 278 277 275
290 293 295 294 296 298 299 303 304 305 307 307 308 311 313 313 311 310 310 310 309 308 308 306 305 303 301 300 301 300 299 298 297 295 292 290 289 289 290 289 286 283 279
292 295 295 297 297 301 304 303 305 306 308 310 314 315 316 315 313 313 312 310 308 307 304 303 303 304 305 304 304 303 301 299 297 295 295 295 296 295 293 292 289 286 282
288 289 293 299 301 299 303 306 308 310 313 314 314 318 319 320 318 316 313 311 308 305 305 307 308 308 307 308 306 302 301 300 300 302 303 304 301 300 298 296 293 290 286
292 297 297 294 297 302 306 308 310 312 314 316 319 323 323 323 321 319 316 312 311 311 311 310 309 309 309 308 306 305 306 306 307 309 309 306 304 302 300 298 295 292 288
292 291 293 299 302 305 307 308 312 314 315 316 320 324 326 325 324 321 319 317 315 313 312 312 312 311 310 310 309 310 310 310 313 312 311 309 307 304 303 300 297 294 291
294 298 301 303 305 306 306 308 314 318 319 319 322 324 326 326 325 324 322 319 317 315 314 314 313 314 314 313 312 313 314 316 316 315 313 311 309 307 305 303 300 296 293
299 301 304 305 305 305 307 312 317 322 322 323 325 326 328 329 328 327 325 321 318 317 316 316 317 316 318 315 315 317 320 320 318 317 315 314 312 310 308 305 301 298 295
303 305 306 305 305 306 309 314 319 322 324 328 328 329 330 330 330 328 325 322 320 319 319 319 319 319 319 318 319 321 323 321 320 319 318 316 314 312 309 307 304 302 299
307 309 306 306 308 308 311 316 320 323 325 328 330 330 331 331 331 329 326 323 321 321 321 321 321 322 320 320 323 326 324 322 321 321 319 318 315 312 311 310 307 303 300
307 307 305 307 306 310 314 317 321 323 325 329 331 331 332 331 331 329 326 324 323 323 324 324 324 323 322 324 327 327 326 325 324 322 321 319 318 316 314 313 310 306 304
305 302 304 307 310 313 314 317 321 323 326 330 332 331 331 332 330 328 327 325 325 326 326 326 326 324 324 327 330 328 328 327 325 323 323 321 321 320 318 315 313 310 308
301 302 306 310 312 313 315 319 320 323 327 330 331 330 332 331 330 329 328 327 328 328 328 328 326 326 327 331 331 330 330 329 326 325 323 323 323 322 318 314 312 310 309
301 305 308 311 312 314 317 318 320 323 327 329 330 331 331 332 331 330 328 328 329 330 330 329 328 328 330 334 332 332 332 330 328 326 325 326 325 322 318 314 313 312 311
301 305 307 309 312 314 316 319 321 324 328 330 331 331 331 331 331 329 328 329 331 331 331 329 329 330 333 335 334 333 333 331 330 329 329 329 326 322 319 316 315 316 315
301 303 306 308 311 314 316 320 322 326 329 330 331 331 330 331 330 329 329 331 333 332 332 331 331 333 336 336 336 334 333 332 331 331 331 328 326 325 324 322 319 318 318
Height
10797 10795 10794 10793 10791 10789 10784 10782 10780 10776 10773 10770 10767 10763 10759 10754 10748 10741 10735 10729 10723 10717 10711 10706 10701 10696 10688 10683 10676 10670 10665 10660 10654 10646 10639 10631 10632 10630 10622 10615 10618 10614 10611
10786 10785 10784 10783 10784 10782 10777 10775 10772 10768 10766 10762 10759 10756 10750 10743 10736 10730 10723 10718 10710 10702 10696 10691 10685 10678 10672 10665 10658 10652 10646 10640 10635 10629 10623 10615 10603 10607 10610 10601 10597 10594 10593
10781 10777 10775 10774 10774 10771 10769 10767 10764 10761 10757 10755 10751 10746 10740 10734 10727 10721 10714 10706 10697 10688 10681 10674 10666 10659 10651 10645 10639 10632 10627 10620 10614 10610 10607 10600 10594 10584 10579 10585 10581 10576 10573
10776 10772 10769 10767 10766 10764 10762 10759 10756 10751 10748 10745 10739 10734 10730 10726 10718 10709 10702 10692 10684 10673 10664 10656 10648 10640 10633 10625 10620 10614 10607 10602 10595 10589 10584 10582 10579 10575 10561 10560 10562 10560 10557
10770 10768 10764 10762 10760 10757 10754 10752 10747 10743 10739 10736 10730 10722 10717 10714 10705 10697 10690 10679 10669 10658 10647 10640 10632 10623 10616 10609 10602 10595 10589 10583 10576 10571 10565 10560 10556 10555 10553 10542 10540 10539 10540
10762 10761 10760 10757 10755 10751 10746 10743 10740 10736 10730 10723 10717 10709 10703 10698 10692 10681 10672 10663 10654 10643 10629 10625 10617 10609 10600 10592 10584 10577 10571 10564 10558 10552 10547 10543 10538 10534 10532 10530 10524 10522 10516
10753 10751 10751 10748 10747 10743 10739 10736 10732 10726 10719 10713 10704 10698 10690 10680 10673 10665 10653 10646 10637 10629 10617 10606 10600 10592 10584 10576 10567 10559 10554 10549 10540 10533 10525 10520 10515 10512 10508 10506 10504 10499 10494
10744 10741 10741 10740 10737 10735 10729 10723 10718 10715 10710 10702 10691 10683 10675 10666 10655 10647 10638 10630 10619 10613 10603 10592 10584 10575 10567 10559 10552 10543 10537 10530 10523 10512 10504 10500 10493 10487 10481 10478 10475 10474 10470
10736 10735 10732 10730 10729 10725 10719 10711 10708 10702 10701 10688 10676 10670 10658 10650 10642 10631 10619 10611 10601 10592 10587 10575 10565 10556 10549 10541 10534 10526 10519 10511 10499 10490 10484 10477 10469 10461 10453 10444 10437 10436 10440
10729 10726 10723 10719 10716 10714 10714 10702 10692 10691 10687 10672 10661 10654 10645 10634 10625 10616 10604 10594 10585 10574 10564 10557 10549 10541 10533 10524 10515 10506 10497 10485 10474 10466 10458 10448 10437 10429 10421 10415 10408 10401 10396
10720 10717 10714 10710 10704 10700 10701 10694 10682 10673 10671 10660 10650 10639 10632 10621 10609 10599 10589 10577 10566 10557 10548 10540 10531 10522 10513 10503 10493 10483 10470 10456 10445 10435 10422 10409 10398 10390 10381 10372 10366 10362 10357
10710 10708 10703 10698 10691 10686 10684 10682 10673 10663 10655 10648 10638 10628 10618 10607 10595 10584 10573 10562 10551 10541 10532 10522 10513 10503 10491 10479 10469 10455 10440 10426 10415 10400 10384 10370 10359 10348 10338 10329 10318 10310 10304
10699 10696 10692 10686 10680 10674 10669 10664 10659 10651 10644 10635 10626 10616 10605 10593 10580 10568 10557 10546 10536 10526 10515 10504 10493 10481 10468 10455 10443 10427 10410 10396 10379 10362 10348 10333 10317 10304 10290 10276 10260 10249 10243
10689 10685 10681 10676 10671 10664 10658 10651 10646 10639 10632 10623 10614 10603 10591 10578 10566 10554 10542 10531 10520 10509 10498 10485 10472 10459 10444 10433 10416 10396 10381 10365 10345 10327 10310 10293 10270 10248 10232 10218 10205 10195 10188
10678 10674 10671 10667 10661 10655 10649 10641 10635 10628 10620 10611 10601 10590 10578 10565 10552 10540 10528 10516 10503 10491 10478 10465 10451 10437 10421 10408 10383 10364 10348 10327 10309 10289 10267 10246 10225 10206 10188 10175 10161 10152 10146
10668 10665 10661 10656 10651 10645 10640 10634 10628 10620 10610 10601 10590 10578 10565 10552 10538 10525 10513 10500 10486 10473 10459 10446 10432 10417 10399 10378 10354 10334 10316 10292 10273 10250 10226 10203 10184 10166 10153 10140 10129 10120 10112
10659 10655 10651 10646 10641 10636 10631 10626 10619 10610 10600 10590 10579 10566 10553 10539 10525 10511 10497 10483 10469 10455 10442 10427 10411 10393 10374 10350 10326 10306 10282 10261 10238 10212 10188 10168 10152 10135 10124 10112 10102 10093 10086
10650 10646 10641 10637 10632 10628 10623 10616 10608 10599 10589 10579 10566 10553 10538 10525 10509 10495 10481 10467 10453 10439 10423 10407 10389 10370 10351 10322 10297 10276 10250 10224 10200 10178 10158 10139 10125 10112 10099 10090 10080 10072 10065
10641 10637 10632 10628 10623 10619 10613 10606 10598 10588 10578 10566 10553 10539 10525 10510 10494 10480 10466 10452 10437 10422 10405 10387 10368 10348 10328 10300 10274 10250 10223 10194 10170 10150 10134 10117 10103 10093 10082 10072 10061 10052 10046
10632 10628 10623 10619 10614 10609 10603 10595 10587 10577 10566 10553 10540 10525 10511 10497 10481 10467 10452 10437 10422 10405 10387 10367 10346 10322 10300 10277 10251 10226 10197 10172 10147 10127 10112 10099 10088 10076 10065 10056 10047 10038 10032
10623 10619 10614 10610 10605 10599 10592 10585 10576 10565 10553 10541 10527 10513 10498 10483 10469 10454 10439 10423 10406 10388 10368 10348 10325 10301 10275 10248 10224 10199 10171 10145 10125 10108 10094 10082 10070 10060 10051 10042 10033 10025 10018
10614 10610 10606 10601 10596 10589 10582 10574 10565 10553 10541 10528 10514 10500 10486 10471 10456 10440 10424 10408 10390 10370 10350 10327 10303 10279 10253 10226 10200 10174 10150 10127 10108 10092 10080 10068 10056 10046 10037 10028 10021 10013 10006
10605 10601 10597 10591 10586 10579 10570 10562 10553 10542 10530 10516 10503 10488 10473 10458 10442 10425 10409 10392 10373 10353 10332 10308 10285 10259 10232 10205 10178 10153 10131 10113 10095 10081 10068 10056 10045 10036 10027 10018 10010 10003 9997
10596 10592 10587 10582 10576 10568 10560 10552 10542 10531 10519 10505 10491 10476 10460 10444 10427 10410 10393 10376 10358 10337 10314 10290 10263 10238 10214 10187 10157 10133 10114 10098 10084 10070 10058 10046 10036 10027 10018 10009 10001 9995 9989
10587 10583 10578 10572 10565 10558 10550 10541 10530 10518 10506 10492 10478 10462 10446 10430 10413 10397 10379 10360 10341 10321 10301 10276 10249 10220 10194 10170 10142 10117 10099 10084 10071 10059 10047 10036 10027 10019 10011 10002 9994 9987 9980
10578 10573 10568 10562 10555 10548 10539 10529 10518 10506 10493 10479 10464 10449 10433 10417 10399 10381 10364 10348 10326 10302 10278 10254 10227 10203 10179 10152 10127 10107 10089 10074 10061 10049 10039 10029 10020 10011 10003 9995 9987 9981 9974